Cloud_Cover
0 0 2 91 4 82 5 1 5 1 10 2 0 10 9 13 0 0 0 41 82 100 100 100 100 94 100 55 100 100 100 100 100 100 100 100 100 97 100 97 100 93 100 100 100
1 0 0 8 96 2 4 5 0 2 13 4 0 0 4 0 0 0 0 0 7 100 100 100 100 100 74 100 100 91 100 100 100 100 100 100 100 85 100 100 28 8 100 11 18
2 0 0 4 0 88 3 8 8 12 12 9 2 0 0 0 0 0 0 0 0 0 0 100 100 100 100 100 99 100 29 100 100 100 100 100 46 100 58 74 100 100 100 100 100
5 18 5 5 5 8 33 30 8 5 10 20 18 0 0 0 0 0 0 0 0 0 0 0 59 100 100 100 100 100 100 100 100 100 100 100 100 5 81 86 44 77 100 72 95
64 100 67 16 77 46 5 9 71 17 2 8 13 0 0 0 0 0 0 0 0 0 0 0 0 15 95 100 100 100 100 100 100 100 100 100 100 99 3 94 100 100 100 100 80
2 1 2 4 19 48 7 5 4 6 44 6 1 0 0 0 0 0 0 0 0 0 0 0 0 0 0 2 14 76 100 100 100 100 97 84 100 100 70 100 68 18 27 40 84
0 0 5 1 10 7 4 6 5 13 3 6 21 7 1 0 0 0 0 0 0 0 0 0 0 0 0 0 0 44 42 100 96 81 100 100 100 99 100 100 13 5 4 4 7
0 0 1 10 17 14 2 0 0 0 0 0 0 3 9 5 1 0 0 0 0 0 0 0 0 0 0 0 0 0 0 37 71 100 92 100 100 100 100 100 56 5 8 6 1
1 0 0 0 3 0 2 0 0 0 0 0 0 0 0 2 4 4 5 0 0 0 0 0 0 0 0 0 0 0 0 0 1 78 100 100 84 100 100 100 100 62 8 10 5
99 44 12 17 52 0 0 5 2 0 0 0 0 0 0 0 0 0 0 0 0 0 0 0 0 0 0 0 0 0 0 0 0 0 10 100 48 100 100 100 100 100 79 100 91
15 97 100 100 98 0 0 0 0 0 0 0 0 0 0 0 0 0 0 0 0 1 2 4 0 0 0 0 0 0 0 0 0 0 0 4 1 97 100 100 100 100 100 100 56
100 100 50 100 46 0 2 0 0 0 0 0 0 0 0 0 0 0 0 0 0 0 1 0 0 4 8 0 0 0 0 0 0 0 2 4 1 0 61 100 100 24 48 70 100
79 80 20 57 0 0 0 0 0 0 0 0 0 0 0 0 0 0 0 0 0 4 5 5 37 41 5 19 5 4 1 0 0 0 2 0 3 0 0 8 98 100 100 55 74
8 6 0 0 45 0 3 0 0 0 1 2 0 0 0 0 3 2 0 0 4 5 50 87 54 8 21 12 32 5 4 9 0 4 58 0 5 0 0 5 5 100 100 19 62
0 0 1 0 0 4 0 0 0 0 9 0 0 0 0 2 1 4 5 19 43 99 100 69 100 100 100 93 27 81 99 89 7 8 72 54 70 1 1 4 0 19 100 100 16
5 5 4 1 1 0 0 0 0 31 86 0 0 0 0 4 5 5 5 5 15 100 100 97 99 81 88 51 5 23 65 100 96 89 99 5 77 7 5 5 5 2 28 85 100
100 58 36 5 5 4 0 4 77 65 3 4 0 0 0 16 5 5 5 5 100 26 100 96 81 47 100 92 88 0 100 100 100 100 62 86 98 8 67 97 100 99 28 3 100
100 100 100 62 20 44 20 74 18 8 4 0 0 0 27 5 5 5 71 100 44 99 95 100 100 47 9 92 22 96 100 100 100 100 100 100 89 40 79 100 7 0 2 0 3
100 100 100 100 100 100 100 70 82 2 0 0 0 5 4 81 39 30 100 100 100 100 100 100 78 99 99 98 89 100 100 100 95 100 100 100 80 81 8 68 5 5 0 0 0
100 100 100 100 100 100 100 80 5 5 5 3 12 12 5 6 14 60 100 100 92 91 99 100 60 96 92 52 95 96 85 97 65 100 100 100 100 71 98 98 15 0 0 1 0
100 100 100 100 100 100 100 17 5 5 5 10 5 39 45 48 23 69 98 100 98 100 100 100 53 72 75 89 100 84 99 70 100 99 100 100 100 100 99 64 19 27 1 0 0
100 100 51 100 100 100 100 87 5 5 25 69 38 82 100 100 98 99 100 100 100 99 100 100 71 68 98 100 80 17 40 100 47 54 100 100 100 100 100 100 82 34 0 0 0
20 47 100 100 100 100 100 100 84 10 44 43 69 94 90 100 96 97 99 100 100 100 73 97 93 100 59 95 100 100 58 100 100 100 55 100 100 100 100 36 4 35 13 2 0
5 32 64 11 46 91 69 51 27 97 39 83 76 91 96 100 100 76 100 100 100 100 83 19 84 100 96 100 100 100 99 94 100 95 100 100 100 100 100 74 73 100 11 17 0
17 41 5 5 6 32 52 69 94 100 67 82 73 100 100 80 76 96 100 98 100 100 94 100 89 99 100 100 100 100 100 100 79 97 91 100 100 100 100 100 100 16 5 0 0
5 4 3 5 7 67 60 88 100 83 53 28 98 100 100 89 100 75 99 99 96 83 100 100 93 100 100 94 100 100 100 98 11 99 6 100 100 100 100 100 92 5 0 0 0
44 90 62 5 2 33 34 65 49 100 100 86 99 100 100 94 100 94 92 100 99 86 100 100 100 100 100 100 100 99 100 88 31 59 54 77 100 100 100 100 100 5 0 0 0